Weather History for KDVK - April, 2013

Change the Weather History Date:

Thursday, April 4, 2013

  Actual Average (KLEX) Record (KLEX)
Temperature  
Mean Temperature 42 °F 52 °F  
Max Temperature 50 °F 62 °F 86 °F (1934)
Min Temperature 35 °F 41 °F 23 °F (1944)
Degree Days  
Heating Degree Days 22 14  
Month to date heating degree days 57  
Since 1 July heating degree days 4233  
Cooling Degree Days 0 0  
Month to date cooling degree days 0  
Year to date cooling degree days 2  
Moisture  
Dew Point 28 °F    
Average Humidity 61    
Maximum Humidity 93    
Minimum Humidity 42    
Precipitation  
Precipitation 0.00 in 0.10 in 2.95 in (2008)
Month to date precipitation 0.45  
Year to date precipitation 10.92  
Snow  
Snow 0.00 in 0.00 in 4.80 in (1987)
Month to date snowfall 0.1  
Since 1 July snowfall 12.8  
Snow Depth -    
Sea Level Pressure  
Sea Level Pressure 30.12 in    
Wind  
Wind Speed 6 mph (ESE)    
Max Wind Speed 10 mph    
Max Gust Speed -    
Visibility 10 miles    
Events      
T = Trace of Precipitation, MM = Missing Value Source: NWS Daily Summary

Daily Weather History Graph

Daily Weather History Graph

Search for Another Location

Airport or City:

Trip Planner

Search our weather history database for the weather conditions in past years. The results will help you decide how hot, cold, wet, or windy it might be!

Date:

Astronomy

Apr. 04, 2013 Rise Set
Actual Time 7:19 AM EDT 8:04 PM EDT
Civil Twilight 6:53 AM EDT 8:31 PM EDT
Nautical Twilight 6:21 AM EDT 9:02 PM EDT
Astronomical Twilight 5:49 AM EDT 9:35 PM EDT
Moon 3:39 AM EDT 2:28 PM EDT
Length of Visible Light 13h 38m
Length of Day
12h 45m
Waning Crescent, 34% of the Moon is Illuminated
Apr 4
Waning Crescent
Apr 10
New
Apr 18
First Quarter
Apr 25
Full
May 2
Last Quarter

Hourly Weather History & Observations

Time (EDT) Temp. Windchill Dew Point Humidity Pressure Visibility Wind Dir Wind Speed Gust Speed Precip Events Conditions
12:15 AM 37.4 °F 31.4 °F 21.2 °F 52% 30.26 in 10.0 mi ENE 8.1 mph - N/A   Clear
12:35 AM 37.4 °F 31.4 °F 19.4 °F 48% 30.25 in 10.0 mi ENE 8.1 mph - N/A   Clear
12:55 AM 37.4 °F 30.3 °F 19.4 °F 48% 30.24 in 10.0 mi East 10.4 mph - N/A   Clear
1:15 AM 37.4 °F 31.4 °F 19.4 °F 48% 30.24 in 10.0 mi ENE 8.1 mph - N/A   Clear
1:35 AM 37.4 °F 30.8 °F 19.4 °F 48% 30.24 in 10.0 mi ENE 9.2 mph - N/A   Clear
1:55 AM 37.4 °F 32.1 °F 19.4 °F 48% 30.24 in 10.0 mi ENE 6.9 mph - N/A   Clear
2:15 AM 37.4 °F 31.4 °F 19.4 °F 48% 30.23 in 10.0 mi ENE 8.1 mph - N/A   Clear
2:35 AM 37.4 °F 32.1 °F 19.4 °F 48% 30.23 in 10.0 mi East 6.9 mph - N/A   Clear
2:55 AM 37.4 °F 31.4 °F 17.6 °F 45% 30.22 in 10.0 mi ENE 8.1 mph - N/A   Clear
3:15 AM 37.4 °F 32.8 °F 17.6 °F 45% 30.22 in 10.0 mi East 5.8 mph - N/A   Clear
3:35 AM 35.6 °F 29.9 °F 19.4 °F 52% 30.22 in 10.0 mi East 6.9 mph - N/A   Clear
3:55 AM 35.6 °F 29.2 °F 17.6 °F 48% 30.20 in 10.0 mi East 8.1 mph - N/A   Clear
4:15 AM 35.6 °F 30.7 °F 19.4 °F 52% 30.19 in 10.0 mi ENE 5.8 mph - N/A   Clear
4:35 AM 35.6 °F 29.9 °F 17.6 °F 48% 30.19 in 10.0 mi ENE 6.9 mph - N/A   Clear
4:55 AM 35.6 °F 30.7 °F 17.6 °F 48% 30.18 in 10.0 mi ENE 5.8 mph - N/A   Clear
5:15 AM 35.6 °F 30.7 °F 17.6 °F 48% 30.18 in 10.0 mi ENE 5.8 mph - N/A   Clear
5:35 AM 35.6 °F 30.7 °F 17.6 °F 48% 30.17 in 10.0 mi East 5.8 mph - N/A   Clear
5:55 AM 35.6 °F 29.9 °F 17.6 °F 48% 30.17 in 10.0 mi East 6.9 mph - N/A   Clear
6:15 AM 35.6 °F 30.7 °F 19.4 °F 52% 30.17 in 10.0 mi ENE 5.8 mph - N/A   Clear
6:35 AM 35.6 °F 31.7 °F 19.4 °F 52% 30.17 in 10.0 mi East 4.6 mph - N/A   Clear
6:55 AM 35.6 °F 31.7 °F 19.4 °F 52% 30.17 in 10.0 mi ENE 4.6 mph - N/A   Clear
7:15 AM 35.6 °F 31.7 °F 19.4 °F 52% 30.16 in 10.0 mi ENE 4.6 mph - N/A   Clear
7:35 AM 35.6 °F 31.7 °F 19.4 °F 52% 30.16 in 10.0 mi ENE 4.6 mph - N/A   Clear
7:55 AM 35.6 °F 29.9 °F 19.4 °F 52% 30.16 in 10.0 mi ENE 6.9 mph - N/A   Clear
8:15 AM 35.6 °F 29.9 °F 19.4 °F 52% 30.16 in 10.0 mi ENE 6.9 mph - N/A   Clear
8:35 AM 35.6 °F 29.2 °F 21.2 °F 56% 30.16 in 10.0 mi East 8.1 mph - N/A   Clear
8:55 AM 37.4 °F 31.4 °F 19.4 °F 48% 30.16 in 10.0 mi ENE 8.1 mph - N/A   Clear
9:15 AM 37.4 °F 30.8 °F 21.2 °F 52% 30.15 in 10.0 mi East 9.2 mph - N/A   Clear
9:35 AM 39.2 °F 34.2 °F 21.2 °F 49% 30.13 in 10.0 mi ENE 6.9 mph - N/A   Clear
9:55 AM 41.0 °F 35.8 °F 21.2 °F 45% 30.13 in 10.0 mi East 8.1 mph - N/A   Clear
10:15 AM 41.0 °F 36.4 °F 21.2 °F 45% 30.12 in 10.0 mi East 6.9 mph - N/A   Clear
10:35 AM 42.8 °F 38.6 °F 21.2 °F 42% 30.12 in 10.0 mi East 6.9 mph - N/A   Clear
10:55 AM 42.8 °F 40.1 °F 21.2 °F 42% 30.12 in 10.0 mi East 4.6 mph - N/A   Clear
11:15 AM 42.8 °F 40.1 °F 23.0 °F 46% 30.13 in 10.0 mi East 4.6 mph - N/A   Scattered Clouds
11:35 AM 42.8 °F 40.1 °F 23.0 °F 46% 30.13 in 10.0 mi East 4.6 mph - N/A   Scattered Clouds
11:55 AM 42.8 °F 41.1 °F 23.0 °F 46% 30.13 in 10.0 mi East 3.5 mph - N/A   Clear
12:35 PM 44.6 °F - 23.0 °F 43% 30.12 in 10.0 mi Calm Calm - N/A   Scattered Clouds
12:55 PM 44.6 °F 43.1 °F 23.0 °F 43% 30.12 in 10.0 mi SSE 3.5 mph - N/A   Mostly Cloudy
1:15 PM 44.6 °F 43.1 °F 23.0 °F 43% 30.12 in 10.0 mi South 3.5 mph - N/A   Overcast
1:35 PM 44.6 °F 43.1 °F 23.0 °F 43% 30.11 in 10.0 mi SE 3.5 mph - N/A   Overcast
1:55 PM 44.6 °F 42.2 °F 26.6 °F 49% 30.10 in 10.0 mi SSE 4.6 mph - N/A   Overcast
2:15 PM 44.6 °F 43.1 °F 26.6 °F 49% 30.09 in 10.0 mi SSE 3.5 mph - N/A   Overcast
2:35 PM 46.4 °F 44.3 °F 28.4 °F 50% 30.08 in 10.0 mi South 4.6 mph - N/A   Mostly Cloudy
2:55 PM 46.4 °F 44.3 °F 32.0 °F 57% 30.07 in 10.0 mi South 4.6 mph - N/A   Mostly Cloudy
3:15 PM 44.6 °F 41.4 °F 33.8 °F 66% 30.06 in 10.0 mi South 5.8 mph - N/A   Mostly Cloudy
3:35 PM 50.0 °F - 35.6 °F 58% 30.06 in 10.0 mi SSW 5.8 mph - N/A   Scattered Clouds
3:55 PM 50.0 °F - 37.4 °F 62% 30.05 in 10.0 mi South 5.8 mph - N/A   Clear
4:15 PM 50.0 °F - 37.4 °F 62% 30.05 in 10.0 mi South 4.6 mph - N/A   Scattered Clouds
4:35 PM 48.2 °F - 37.4 °F 66% 30.05 in 10.0 mi SW 3.5 mph - N/A   Mostly Cloudy
4:55 PM 48.2 °F - 39.2 °F 71% 30.05 in 10.0 mi SSW 3.5 mph - N/A   Overcast
5:15 PM 48.2 °F - 39.2 °F 71% 30.04 in 10.0 mi South 4.6 mph - N/A   Overcast
5:35 PM 48.2 °F - 41.0 °F 76% 30.04 in 10.0 mi SSW 4.6 mph - N/A   Overcast
5:55 PM 46.4 °F 42.9 °F 41.0 °F 81% 30.04 in 10.0 mi SSW 6.9 mph - N/A   Overcast
6:15 PM 46.4 °F 45.2 °F 41.0 °F 81% 30.04 in 10.0 mi SW 3.5 mph - N/A   Overcast
6:35 PM 46.4 °F 45.2 °F 41.0 °F 81% 30.05 in 10.0 mi SSW 3.5 mph - N/A   Overcast
6:55 PM 46.4 °F 43.5 °F 41.0 °F 81% 30.04 in 10.0 mi SW 5.8 mph - N/A   Overcast
7:15 PM 44.6 °F 42.2 °F 41.0 °F 87% 30.04 in 10.0 mi SSW 4.6 mph - N/A   Overcast
7:35 PM 44.6 °F 42.2 °F 41.0 °F 87% 30.03 in 10.0 mi SSW 4.6 mph - N/A   Overcast
7:55 PM 44.6 °F 42.2 °F 41.0 °F 87% 30.03 in 10.0 mi SW 4.6 mph - N/A   Overcast
8:15 PM 44.6 °F 42.2 °F 41.0 °F 87% 30.02 in 10.0 mi SW 4.6 mph - N/A   Drizzle
8:35 PM 44.6 °F - 41.0 °F 87% 30.03 in 10.0 mi Calm Calm - N/A   Drizzle
8:55 PM 42.8 °F 41.1 °F 41.0 °F 93% 30.03 in 10.0 mi NNW 3.5 mph - N/A   Drizzle
9:15 PM 42.8 °F - 41.0 °F 93% 30.03 in 10.0 mi Calm Calm - N/A   Overcast
9:35 PM 42.8 °F 41.1 °F 41.0 °F 93% 30.03 in 10.0 mi SSW 3.5 mph - N/A   Overcast
9:55 PM 42.8 °F - 41.0 °F 93% 30.03 in 10.0 mi Calm Calm - N/A   Overcast
10:15 PM 42.8 °F 40.1 °F 41.0 °F 93% 30.03 in 10.0 mi WNW 4.6 mph - N/A   Overcast
10:35 PM 44.6 °F - 41.0 °F 87% 30.03 in 10.0 mi Calm Calm - N/A   Overcast
10:55 PM 42.8 °F - 41.0 °F 93% 30.02 in 10.0 mi Calm Calm - N/A   Overcast
11:15 PM 42.8 °F 41.1 °F 41.0 °F 93% 30.02 in 10.0 mi West 3.5 mph - N/A   Overcast
11:35 PM 42.8 °F - 41.0 °F 93% 30.02 in 10.0 mi Calm Calm - N/A   Overcast
11:55 PM 42.8 °F - 41.0 °F 93% 30.02 in 10.0 mi Calm Calm - N/A   Overcast